[[{"header":{"parameterUnit":"m.s-1","parameterCategory":1,"la1":30.2991,"la2":30.254,"lo1":-89.0895,"lo2":-89.0444,"dy":0.0017,"dx":0.0017,"nx":28,"ny":28,"refTime":"2025-12-01T03:00:00:Z","depth":0,"parameterNumber":2,"parameterNumberName":"U-component_of_WINDS"},"data":[0,0,0,0,0,0,0,0,0,0,0,0,0,0,0,0,0,0,0,0,0,0,0,0,0,0,0,0,0,0,0,0,0,0,0,0,0,0,0,0,0,0,0,0,0,0,0,0,0,0,0,0,0,0,0,0,0,0,-0.657,-0.6572,0,-0.6811,-0.6814,-0.6817,-0.6826,-0.6823,-0.682,-0.6817,-0.7073,-0.7083,-0.7092,0,0,0,0,0,0,0,0,0,0,0,0,0,-0.6125,-0.6133,-0.657,-0.6573,-0.6576,-0.6811,-0.6814,-0.6817,-0.6826,-0.6823,-0.6819,-0.6816,-0.707,-0.7081,-0.7093,0,0,0,0,0,0,0,0,0,0,0,0,0,-0.6338,-0.6136,-0.6569,-0.6608,-0.6614,-0.681,-0.6814,-0.6818,-0.6827,-0.6823,-0.6818,-0.6814,-0.7066,-0.708,-0.7094,-0.7271,0,0,-0.7138,-0.7144,0,0,0,0,0,0,0,0,-0.6325,-0.6354,-0.6599,-0.6606,-0.6613,-0.6784,-0.6751,-0.697,-0.6828,-0.6746,-0.6817,-0.6812,-0.6981,-0.7002,-0.7057,-0.7283,-0.7293,-0.7139,-0.7148,-0.7154,-0.7158,0,0,0,0,0,0,0,-0.6311,-0.6344,-0.6665,-0.6603,-0.6611,-0.6617,-0.6642,-0.6793,-0.6886,-0.6753,-0.6754,-0.6782,-0.6984,-0.7043,-0.7063,-0.7297,-0.7139,-0.7152,-0.7161,-0.7166,-0.7682,-0.7687,0,0,0,0,0,0,-0.6287,-0.6331,-0.6658,-0.6673,-0.6455,-0.6628,-0.6656,-0.6733,-0.6884,-0.6903,-0.6786,-0.6782,-0.7021,-0.7047,-0.7072,-0.7291,-0.7154,-0.7168,-0.7176,-0.7677,-0.7683,-0.7689,0,0,0,0,0,0,-0.6277,-0.6316,-0.6648,-0.6502,-0.6545,-0.664,-0.6727,-0.6741,-0.68,-0.6909,-0.6926,-0.6829,-0.7019,-0.7052,-0.7221,-0.73,-0.7174,-0.7187,-0.7671,-0.7679,-0.7686,-0.7727,0,0,0,0,0,0,-0.6265,-0.6313,-0.6378,-0.6504,-0.6553,-0.679,-0.6732,-0.6748,-0.6824,-0.6821,-0.6954,-0.6972,-0.7018,-0.72,-0.7235,-0.7317,-0.7198,-0.7665,-0.7675,-0.7684,-0.7719,-0.7735,-0.7749,0,0,0,0,0,-0.6249,-0.6382,-0.6382,-0.6421,-0.6636,-0.6795,-0.6823,-0.6871,-0.683,-0.6898,-0.6968,-0.6968,-0.7284,-0.7217,-0.7257,-0.7344,-0.766,-0.7672,-0.7683,-0.7713,-0.7732,-0.7748,0,0,0,0,0,0,-0.6266,-0.6399,-0.64,-0.6577,-0.6674,-0.6796,-0.6884,-0.689,-0.7003,-0.6996,-0.7053,-0.7083,-0.7251,-0.7315,-0.7237,-0.7524,-0.7468,-0.7488,-0.7477,-0.7496,-0.7511,-0.7493,-0.721,0,0,0,0,0,-0.6289,-0.6404,-0.6515,-0.6661,-0.6709,-0.6788,-0.6858,-0.6887,-0.6991,-0.7033,-0.7115,-0.7219,-0.7342,-0.7422,-0.7541,-0.7727,-0.7759,-0.7808,-0.7822,-0.7834,-0.7852,-0.7958,-0.7981,-0.7727,-0.7727,-0.7726,0,0,-0.6341,-0.6428,-0.6497,-0.6666,-0.6745,-0.6865,-0.6822,-0.6951,-0.7042,-0.7054,-0.7218,-0.7282,-0.7402,-0.758,-0.7663,-0.7638,-0.7928,-0.7849,-0.7857,-0.7869,-0.7972,-0.7996,-0.8017,-0.7734,-0.7733,-0.7732,0,0,-0.6497,-0.6572,-0.6703,-0.6782,-0.6901,-0.6952,-0.6983,-0.7105,-0.7147,-0.7312,-0.7323,-0.7434,-0.7644,-0.7729,-0.78,-0.7989,-0.7994,-0.8026,-0.8105,-0.8207,-0.8227,-0.8246,-0.8316,-0.834,-0.8043,-0.8043,-0.8043,0,-0.6547,-0.6726,-0.677,-0.6899,-0.6975,-0.6987,-0.7122,-0.7197,-0.735,-0.7403,-0.7372,-0.7637,-0.7718,-0.7918,-0.7964,-0.802,-0.8061,-0.8012,-0.822,-0.8239,-0.8257,-0.8324,-0.835,-0.8046,-0.8046,-0.8045,-0.8045,0,-0.6783,-0.6907,-0.6998,-0.7143,-0.7229,-0.736,-0.7427,-0.7509,-0.7529,-0.7585,-0.7755,-0.7852,-0.7993,-0.8042,-0.8064,-0.8246,-0.8227,-0.8207,-0.8153,-0.8283,-0.8348,-0.8374,-0.8051,-0.805,-0.8049,-0.8048,0,0,-0.6958,-0.7124,-0.7157,-0.7224,-0.7356,-0.7454,-0.7587,-0.7721,-0.7792,-0.7897,-0.8012,-0.8189,-0.8172,-0.8253,-0.8285,-0.8375,-0.8521,-0.8345,-0.8348,-0.8376,-0.8731,-0.8747,-0.8776,-0.8523,-0.8529,-0.8533,-0.8722,0,-0.713,-0.7363,-0.7407,-0.7612,-0.7729,-0.7743,-0.7859,-0.7955,-0.801,-0.812,-0.8183,-0.8309,-0.8275,-0.8324,-0.8413,-0.8484,-0.8593,-0.8471,-0.8635,-0.864,-0.8607,-0.8809,-0.8826,-0.9,-0.8747,-0.8751,-0.8754,0,-0.7362,-0.747,-0.7686,-0.7803,-0.7854,-0.7958,-0.8085,-0.8189,-0.8298,-0.8333,-0.8422,-0.8445,-0.8587,-0.8523,-0.8721,-0.8637,-0.8707,-0.8752,-0.876,-0.878,-0.8707,-0.8837,-0.9056,-0.9083,-0.8794,-0.8791,-0.8788,0,-0.7471,-0.7671,-0.7827,-0.7883,-0.8023,-0.8096,-0.8158,-0.8262,-0.8341,-0.8453,-0.8506,-0.8634,-0.8705,-0.8805,-0.8863,-0.881,-0.9058,-0.8998,-0.9094,-0.9092,-0.9147,-0.9144,-0.9384,-0.9188,-0.9187,-0.9187,-0.9186,0,-0.766,-0.7793,-0.7878,-0.7974,-0.8123,-0.8173,-0.8321,-0.8383,-0.8476,-0.8587,-0.8606,-0.8711,-0.8779,-0.8894,-0.894,-0.9099,-0.913,-0.9164,-0.9176,-0.9164,-0.916,-0.9213,-0.9203,-0.9194,-0.9192,-0.9191,-0.919,0,-0.7809,-0.787,-0.8041,-0.8159,-0.8192,-0.8297,-0.84,-0.8495,-0.855,-0.869,-0.8726,-0.8814,-0.895,-0.9017,-0.9186,-0.9217,-0.9398,-0.94,-0.9361,-0.9366,-0.9458,-0.9449,-0.9743,-0.9785,-0.9558,-0.956,-0.9562,0,-0.7927,-0.8028,-0.8157,-0.8231,-0.8294,-0.8414,-0.8493,-0.8547,-0.863,-0.8762,-0.8843,-0.8979,-0.9091,-0.9308,-0.939,-0.952,-0.9527,-0.9621,-0.9547,-0.9533,-0.9532,-0.9526,-0.9538,-0.9635,-0.9637,-0.9639,-0.964,0,-0.813,-0.8156,-0.8268,-0.8392,-0.8486,-0.8587,-0.8686,-0.8747,-0.8817,-0.891,-0.9047,-0.9134,-0.9306,-0.9443,-0.9579,-0.9647,-0.9658,-0.9662,-0.9692,-0.9683,-0.9657,-0.9675,-0.94,-0.9656,-0.9655,-0.9654,-0.9653,-0.9652,-0.827,-0.8361,-0.8466,-0.8591,-0.8671,-0.8764,-0.8859,-0.8925,-0.904,-0.9183,-0.9208,-0.9356,-0.9465,-0.9648,-0.972,-0.9839,-0.9818,-0.986,-0.9871,-0.9882,-0.9888,-0.9635,-0.9863,-0.9863,-0.9863,-0.9862,-0.9862,0,-0.8477,-0.8544,-0.8659,-0.8796,-0.8895,-0.8892,-0.9002,-0.9087,-0.9215,-0.9314,-0.9423,-0.9583,-0.9716,-0.9807,-0.9942,-1.0019,-1.0028,-1.0053,-1.005,-1.0066,-0.9897,-0.9859,-1.0044,-1.0044,-1.0044,-1.0044,-1.0044,-1.0044,-0.8596,-0.8752,-0.879,-0.8987,-0.9054,-0.9196,-0.926,-0.9347,-0.9426,-0.9603,-0.9712,-0.9769,-0.9866,-1.0008,-1.0131,-1.0154,-1.0205,-1.0231,-1.0255,-1.0096,-1.0077,-1.0059,-1.0024,-1.0241,-1.0241,-1.0414,-1.0416,-1.0417]},{"header":{"parameterUnit":"m.s-1","parameterCategory":1,"la1":30.2991,"la2":30.254,"lo1":-89.0895,"lo2":-89.0444,"dy":0.0017,"dx":0.0017,"nx":28,"ny":28,"refTime":"2025-12-01T03:00:00:Z","depth":0,"parameterNumber":3,"parameterNumberName":"V-component_of_WINDS"},"data":[0,0,0,0,0,0,0,0,0,0,0,0,0,0,0,0,0,0,0,0,0,0,0,0,0,0,0,0,0,0,0,0,0,0,0,0,0,0,0,0,0,0,0,0,0,0,0,0,0,0,0,0,0,0,0,0,0,0,-3.3643,-3.3641,0,-3.3497,-3.3495,-3.3494,-3.3406,-3.3406,-3.3406,-3.3405,-3.3247,-3.3244,-3.324,0,0,0,0,0,0,0,0,0,0,0,0,0,-3.3834,-3.3831,-3.3643,-3.3641,-3.3639,-3.3497,-3.3495,-3.3493,-3.3406,-3.3406,-3.3405,-3.3405,-3.3249,-3.3244,-3.3239,0,0,0,0,0,0,0,0,0,0,0,0,0,-3.3726,-3.383,-3.3643,-3.3579,-3.3572,-3.3498,-3.3495,-3.3493,-3.3406,-3.3406,-3.3405,-3.3405,-3.325,-3.3244,-3.3239,-3.3215,0,0,-3.3221,-3.3219,0,0,0,0,0,0,0,0,-3.3732,-3.3719,-3.359,-3.3583,-3.3575,-3.3469,-3.3505,-3.3399,-3.3407,-3.3469,-3.3405,-3.3405,-3.3321,-3.3309,-3.3283,-3.3207,-3.3201,-3.3221,-3.3217,-3.3215,-3.3213,0,0,0,0,0,0,0,-3.374,-3.3725,-3.3585,-3.3588,-3.3579,-3.3554,-3.3538,-3.3484,-3.34,-3.3463,-3.3457,-3.3441,-3.3317,-3.3289,-3.3279,-3.3198,-3.3221,-3.3216,-3.3212,-3.321,-3.309,-3.309,0,0,0,0,0,0,-3.3759,-3.3732,-3.3589,-3.358,-3.3654,-3.3551,-3.3533,-3.3504,-3.34,-3.3384,-3.3442,-3.3438,-3.3299,-3.3286,-3.3273,-3.3235,-3.3215,-3.3209,-3.3206,-3.309,-3.309,-3.309,0,0,0,0,0,0,-3.3763,-3.3747,-3.3595,-3.3654,-3.3633,-3.3548,-3.3516,-3.3501,-3.3473,-3.3384,-3.3367,-3.343,-3.3298,-3.3281,-3.3229,-3.3228,-3.3207,-3.3201,-3.3089,-3.309,-3.309,-3.3162,0,0,0,0,0,0,-3.3769,-3.3749,-3.3742,-3.3655,-3.363,-3.3558,-3.3516,-3.3499,-3.3465,-3.3458,-3.3368,-3.3353,-3.3296,-3.3238,-3.3224,-3.322,-3.3197,-3.3089,-3.3089,-3.309,-3.3159,-3.3164,-3.3169,0,0,0,0,0,-3.3776,-3.3767,-3.3742,-3.3726,-3.362,-3.3558,-3.3544,-3.3482,-3.3465,-3.3455,-3.3397,-3.3355,-3.3231,-3.3234,-3.3216,-3.3211,-3.3089,-3.3089,-3.309,-3.3157,-3.3163,-3.3169,0,0,0,0,0,0,-3.3855,-3.3755,-3.3726,-3.3689,-3.3633,-3.3544,-3.353,-3.3491,-3.3437,-3.3432,-3.3355,-3.3335,-3.329,-3.3245,-3.325,-3.318,-3.3155,-3.3152,-3.3211,-3.3217,-3.3222,-3.3233,-3.3192,0,0,0,0,0,-3.3868,-3.3829,-3.3743,-3.3718,-3.3692,-3.3616,-3.3586,-3.3543,-3.3481,-3.3456,-3.3394,-3.3333,-3.3279,-3.3245,-3.3191,-3.3151,-3.3128,-3.3139,-3.3144,-3.3149,-3.3147,-3.3118,-3.3121,-3.3092,-3.3092,-3.3092,0,0,-3.3894,-3.3835,-3.3815,-3.3732,-3.3684,-3.3642,-3.3596,-3.3555,-3.3521,-3.3449,-3.3397,-3.3349,-3.3274,-3.3228,-3.3204,-3.3189,-3.3149,-3.3149,-3.3154,-3.3149,-3.3119,-3.3122,-3.3124,-3.3093,-3.3092,-3.3092,0,0,-3.3921,-3.3873,-3.3846,-3.3799,-3.3727,-3.3676,-3.3669,-3.3585,-3.3551,-3.3498,-3.3441,-3.3398,-3.3309,-3.3257,-3.3219,-3.3222,-3.3181,-3.3207,-3.3233,-3.3206,-3.3208,-3.321,-3.3208,-3.3209,-3.3205,-3.3205,-3.3205,0,-3.3962,-3.39,-3.3836,-3.3798,-3.3761,-3.3695,-3.3664,-3.362,-3.3533,-3.3507,-3.3492,-3.3376,-3.3322,-3.326,-3.3261,-3.3233,-3.322,-3.3217,-3.3214,-3.3215,-3.3215,-3.3212,-3.3212,-3.3209,-3.3208,-3.3208,-3.3208,0,-3.3952,-3.391,-3.3896,-3.3816,-3.3777,-3.3743,-3.367,-3.3638,-3.3597,-3.3547,-3.349,-3.3422,-3.3352,-3.3334,-3.3293,-3.3265,-3.3258,-3.3229,-3.3202,-3.3222,-3.3219,-3.3217,-3.3214,-3.3213,-3.3211,-3.3211,0,0,-3.4026,-3.391,-3.3905,-3.3867,-3.3781,-3.3745,-3.3705,-3.3638,-3.3611,-3.3552,-3.3514,-3.3438,-3.341,-3.3367,-3.3319,-3.3296,-3.3299,-3.3269,-3.3266,-3.3275,-3.3259,-3.3281,-3.3281,-3.327,-3.327,-3.327,-3.3265,0,-3.4038,-3.3968,-3.3908,-3.3858,-3.3815,-3.375,-3.3714,-3.3656,-3.3606,-3.356,-3.3503,-3.345,-3.3419,-3.3392,-3.3366,-3.3304,-3.3294,-3.3304,-3.3231,-3.3229,-3.3251,-3.328,-3.3303,-3.3302,-3.3263,-3.3263,-3.3263,0,-3.4044,-3.399,-3.3937,-3.3852,-3.3832,-3.3802,-3.3734,-3.3692,-3.3621,-3.3586,-3.3538,-3.3487,-3.3437,-3.3415,-3.3343,-3.3351,-3.3316,-3.3281,-3.3279,-3.3269,-3.3247,-3.3269,-3.3301,-3.33,-3.326,-3.3261,-3.3261,0,-3.4101,-3.4014,-3.397,-3.3939,-3.384,-3.3819,-3.3776,-3.3706,-3.3669,-3.3608,-3.3582,-3.3515,-3.3478,-3.3426,-3.3357,-3.3348,-3.329,-3.3263,-3.3256,-3.3258,-3.3247,-3.3249,-3.3273,-3.3228,-3.3228,-3.3228,-3.3228,0,-3.412,-3.409,-3.3993,-3.3966,-3.3928,-3.3857,-3.382,-3.3771,-3.3708,-3.3666,-3.3605,-3.3566,-3.3479,-3.3428,-3.3373,-3.332,-3.3304,-3.3271,-3.3257,-3.3276,-3.328,-3.3252,-3.325,-3.3228,-3.3228,-3.3228,-3.3228,0,-3.4177,-3.4112,-3.4059,-3.397,-3.3946,-3.3922,-3.3843,-3.3812,-3.3758,-3.3706,-3.369,-3.3604,-3.3541,-3.3468,-3.338,-3.3343,-3.3293,-3.3272,-3.3318,-3.3309,-3.3306,-3.3307,-3.3312,-3.3308,-3.3268,-3.3268,-3.3269,0,-3.4194,-3.4169,-3.4077,-3.4047,-3.4006,-3.3958,-3.3919,-3.3846,-3.3808,-3.3725,-3.3702,-3.3635,-3.3578,-3.348,-3.3407,-3.3338,-3.3315,-3.3321,-3.3304,-3.3323,-3.3312,-3.3314,-3.3309,-3.3326,-3.3327,-3.3327,-3.3328,0,-3.423,-3.4198,-3.4148,-3.4085,-3.4042,-3.3988,-3.3931,-3.3908,-3.3822,-3.3782,-3.3719,-3.3674,-3.3585,-3.3517,-3.3439,-3.339,-3.3343,-3.3334,-3.3328,-3.3347,-3.3374,-3.3357,-3.3329,-3.3334,-3.3333,-3.3333,-3.3333,-3.3332,-3.4265,-3.4239,-3.417,-3.4114,-3.4064,-3.4012,-3.3977,-3.392,-3.3867,-3.3791,-3.3749,-3.3686,-3.3611,-3.3502,-3.3453,-3.3399,-3.3383,-3.3376,-3.3374,-3.3373,-3.3377,-3.3384,-3.3385,-3.3384,-3.3384,-3.3384,-3.3384,0,-3.4296,-3.4248,-3.4198,-3.4121,-3.4076,-3.4039,-3.3973,-3.3937,-3.3883,-3.3819,-3.3764,-3.3688,-3.3622,-3.3544,-3.3471,-3.3442,-3.3418,-3.3425,-3.3426,-3.3414,-3.3397,-3.3408,-3.3445,-3.3445,-3.3445,-3.3445,-3.3445,-3.3445,-3.4307,-3.426,-3.422,-3.4145,-3.4095,-3.4036,-3.4001,-3.395,-3.3898,-3.3818,-3.3764,-3.3714,-3.3642,-3.3564,-3.3499,-3.3477,-3.3452,-3.3465,-3.3437,-3.3421,-3.3416,-3.3411,-3.3421,-3.3461,-3.3461,-3.3458,-3.3458,-3.3458]}]]